Regional Weather Roundup
Issued by NWS Green Bay, WI

Home | Current Version | Previous Version | Text Only | Print | Product List | Glossary On
Versions: 1 2 3 4 5 6 7 8 9 10 11 12 13 14 15 16 17 18 19 20 21 22 23 24 25 26 27 28 29 30 31 32 33 34 35 36 37 38 39 40 41 42 43 44 45 46 47 48 49 50
000
ASUS43 KGRB 051311
RWRGRB

NORTH-CENTRAL AND NORTHEAST WISCONSIN REGIONAL WEATHER ROUNDUP
NATIONAL WEATHER SERVICE GREEN BAY WI
800 AM CDT SAT SEP 05 2015

WIZ005-009-010>012-018-019-051400-
NORTH CENTRAL WISCONSIN

CITY           SKY/WX    TMP DP  RH WIND       PRES   REMARKS
IRONWOOD       CLOUDY    66  66 100 E3        30.03S
MANITOWISH WTR CLOUDY    66  66 100 S5        30.08S FOG
ARBOR VITAE    MOSUNNY   69  66  93 S3        30.09R FOG
EAGLE RIVER    CLOUDY    66  66 100 CALM      30.10S FOG
LAND O LAKES   CLOUDY    66  65  96 CALM      30.10S FOG
RHINELANDER    CLOUDY    67  65  93 S3        30.10F FOG
PHILLIPS       CLOUDY    66  66 100 SE3       30.06F FOG
ANTIGO         CLOUDY    65  65  99 CALM      30.10S FOG
TOMAHAWK       CLOUDY    67  65  94 CALM      30.09S FOG
MERRILL        CLOUDY    68  67  98 CALM      30.09F FOG
$$

WIZ013-073-051400-
NORTHEAST WISCONSIN

CITY           SKY/WX    TMP DP  RH WIND       PRES   REMARKS
IRON MOUNTAIN  FOG       62  61  96 CALM      30.10R VSB 1/4
MARINETTE      CLOUDY    66  63  88 CALM      30.08S
OCONTO         CLOUDY    64  64 100 CALM      30.09R
$$

WIZ017-030-035>037-045-051400-
CENTRAL WISCONSIN

CITY           SKY/WX    TMP DP  RH WIND       PRES   REMARKS
MEDFORD        FOG       66  66 100 SE5       30.08S VSB 1/4
WAUSAU         CLOUDY    69  65  86 S5        30.07S
MOSINEE        CLOUDY    66  66 100 CALM      30.10R FOG
MARSHFIELD     FOG       68  65  90 E6        30.07R VSB 1/4
WISC RAPIDS    CLOUDY    68  64  87 SE7       30.08S
STEVENS POINT  CLOUDY    66  65  97 E6        30.08F FOG
WAUPACA        FOG       68  68  98 CALM      30.09S VSB 1
SHAWANO        NOT AVBL
CLINTONVILLE   CLOUDY    64  63  94 CALM      30.09R FOG
WAUTOMA        FOG       66  66 100 CALM      30.09R VSB 3/4
$$

WIZ038-039-048-051-051400-
FOX VALLEY

CITY           SKY/WX    TMP DP  RH WIND       PRES   REMARKS
NWS GREEN BAY  PTSUNNY   66  65  96 E3        30.09R FOG
APPLETON       NOT AVBL
OSHKOSH        MOSUNNY   68  65  90 CALM      30.08R
FOND DU LAC    MOSUNNY   67  65  93 S3        30.09R
$$

WIZ022-050-052-051400-
EAST CENTRAL WISCONSIN

CITY           SKY/WX    TMP DP  RH WIND       PRES   REMARKS
EPHRAIM        FOG       66  66 100 CALM      30.09R VSB 1/2
STURGEON BAY   CLOUDY    66  63  88 CALM      30.11S VSB<1/4
MANITOWOC      CLOUDY    63  63 100 MISG      30.09S
SHEBOYGAN      CLOUDY    65  65 100 S3        30.10R FOG
$$

LMZ563-521-522-541>543-051400-
LAKESHORE

STATION/POSITION TIME  TEMP    WIND        PRES    VSBY  WAVE
                       AIR SEA DIR/SP/G                  HT/PER
                 (UTC) (F)     (DEG/KT/KT) (MB)    (MI)  (FT/S)
SHEBOYGAN LKSHOR 1300   60     170/  3/  4 1019.5R
KEWAUNEE LKSHORE 1200   62        CALM     1017.5S
ALGOMA MARINA    1214             CALM       N/A
NORTHPORT PIER   1200   67      CALM  /  4 1018.6R
N MID LAKE BUOY  1250   67 67  270/  4/  4 1018.3R         0
S GREEN BAY BUOY 1300   65 67   50/  2/  4 1020.2R
SISTER BAY LKSHO 1211   66        CALM       N/A
CHAMBERS ISLAND  1200   66     200/  1/  2 1018.6R
MENOMINEE LKSHOR 1200   66      CALM  /  1 1017.5R
$$



USA.gov is the U.S. government's official web portal to all federal, state and local government web resources and services.